Content
SEND FEEDBACK

Daily
Averages
Monthly
Summary
France

LE HAVRE, FRANCE


Home > Europe > France
Elevation: 338 feet     Latitude: 49 31N     Longitude: 000 04E

WEATHER
 
SELECT A DAY
Number of Records: 176,918;   Date Range: 3/4/97 - 9/15/14
 
SHARE

PRINT THIS DATA

[ ← Previous Day ]
WEATHER ALMANAC - MAY 1, 2013
[ Next Day → ]
[ °C ]   °F
Weather ElementAverageHighLow
Temperature48.9 °F55.4 °F (1:00 pm)42.8 °F (2:30 am)
Dewpoint41.8 °F46.4 °F (1:30 pm)39.2 °F (12:30 am)
Humidity77.1 %93 % (3:30 am)58 % (5:00 pm)
Barometer30.13 in30.18 in (12:30 am)30.06 in (5:00 pm)
Wind Speed15.6 mph24.2 mph (5:00 pm)
Weather ElementAverage
Visibility6 mi
Wind DirectionNE (44 °)

Weather ElementTotal
Precipitation---
Heating Degree Days15.9 (Base 65)
Averaged from 47 records on May 1, 2013
WEATHER CONDITIONS BREAKOUT
WIND DIRECTION BREAKOUT
WEATHER BY HOUR - MAY 1, 2013
[ °C ]   °F
Local TimeTemperatureDewpointHumidityBarometerVisibilityWind DirectionWind SpeedGust SpeedPrecipitationEventsConditions
12:30 AM46.4 °F39.2 °F76 %30.18 in6.2 miNE (50°)15.0 mph
1:00 AM44.6 °F39.2 °F81 %30.18 in6.2 miENE (70°)13.8 mph
1:30 AM44.6 °F39.2 °F81 %30.18 in6.2 miENE (60°)11.5 mphPartly Cloudy
2:00 AM44.6 °F39.2 °F81 %30.18 in6.2 miENE (60°)12.7 mph
2:30 AM42.8 °F39.2 °F87 %30.18 in6.2 miENE (60°)10.4 mph
3:00 AM42.8 °F39.2 °F87 %30.18 in6.2 miENE (60°)10.4 mph
3:30 AM42.8 °F41.0 °F93 %30.18 in6.2 miENE (60°)10.4 mph
4:00 AM42.8 °F41.0 °F93 %30.18 in6.2 miENE (60°)11.5 mph
4:30 AM42.8 °F41.0 °F93 %30.15 in6.2 miENE (60°)10.4 mph
5:00 AM42.8 °F41.0 °F93 %30.15 in6.2 miNE (50°)12.7 mph
5:30 AM42.8 °F41.0 °F93 %30.15 in6.2 miNE (50°)13.8 mph
6:00 AM42.8 °F39.2 °F87 %30.15 in6.2 miNE (50°)12.7 mph
6:30 AM42.8 °F39.2 °F87 %30.15 in6.2 miENE (60°)11.5 mph
7:00 AM42.8 °F41.0 °F93 %30.15 in6.2 miNE (50°)12.7 mph
7:30 AM42.8 °F41.0 °F93 %30.15 in6.2 miNE (50°)12.7 mph
8:00 AM44.6 °F41.0 °F87 %30.15 in6.2 miNE (50°)13.8 mph
8:30 AM46.4 °F41.0 °F81 %30.15 in6.2 miNE (50°)13.8 mph
9:00 AM48.2 °F42.8 °F82 %30.15 in6.2 miNE (40°)12.7 mph
9:30 AM50.0 °F42.8 °F76 %30.15 in6.2 miNE (50°)12.7 mph
10:00 AM51.8 °F42.8 °F71 %30.15 in6.2 miNE (40°)11.5 mph
10:30 AM51.8 °F41.0 °F67 %30.15 in6.2 miNE (50°)16.1 mph
11:00 AM53.6 °F42.8 °F67 %30.15 in6.2 miNE (40°)15.0 mph
11:30 AM53.6 °F44.6 °F72 %30.12 in6.2 miNNE (20°)12.7 mph
12:00 PM53.6 °F44.6 °F72 %30.12 in6.2 miNorth (10°)15.0 mph
12:30 PM53.6 °F44.6 °F72 %30.12 in6.2 miNNE (20°)17.3 mph
1:00 PM55.4 °F44.6 °F67 %30.12 in6.2 miNNE (20°)18.4 mph
1:30 PM55.4 °F46.4 °F72 %30.12 in6.2 miNNE (30°)19.6 mph
2:00 PM55.4 °F44.6 °F67 %30.12 in6.2 miNE (40°)18.4 mph
2:30 PM55.4 °F44.6 °F67 %30.09 in6.2 miNNE (30°)21.9 mph
3:00 PM55.4 °F44.6 °F67 %30.09 in6.2 miNNE (30°)21.9 mph
3:30 PM55.4 °F42.8 °F63 %30.09 in6.2 miNNE (30°)20.7 mph
4:00 PM55.4 °F42.8 °F63 %30.09 in6.2 miNNE (30°)19.6 mph
4:30 PM55.4 °F42.8 °F63 %30.09 in6.2 miNE (40°)20.7 mph
5:00 PM55.4 °F41.0 °F58 %30.06 in6.2 miNNE (30°)24.2 mph
5:30 PM53.6 °F41.0 °F62 %30.06 in6.2 miNNE (30°)21.9 mph
6:00 PM53.6 °F41.0 °F62 %30.06 in6.2 miNNE (30°)18.4 mph
6:30 PM53.6 °F41.0 °F62 %30.06 in6.2 miNE (40°)19.6 mphOvercast
7:00 PM51.8 °F39.2 °F62 %30.06 in6.2 miNE (40°)20.7 mph
7:30 PM51.8 °F39.2 °F62 %30.09 in6.2 miNE (50°)18.4 mphOvercast
8:00 PM50.0 °F41.0 °F71 %30.09 in6.2 miNE (50°)15.0 mphRainLight Rain
8:30 PM48.2 °F41.0 °F76 %30.09 in6.2 miNE (50°)16.1 mphRainLight Rain
9:00 PM48.2 °F42.8 °F82 %30.09 in5.6 miNE (50°)15.0 mphRainLight Rain
9:30 PM46.4 °F42.8 °F87 %30.09 in5.0 miNE (40°)17.3 mphRainLight Rain
10:00 PM46.4 °F42.8 °F87 %30.09 in5.0 miNE (50°)15.0 mphRainLight Rain
10:30 PM46.4 °F42.8 °F87 %30.12 in5.0 miNE (40°)16.1 mphRainLight Rain
11:00 PM46.4 °F42.8 °F87 %30.12 in4.3 miNE (50°)15.0 mphRainLight Rain
11:30 PM46.4 °F42.8 °F87 %30.12 in3.7 miNE (50°)15.0 mphRainLight Rain
Hourly data recorded from LFOH, located miles away from Le Havre, France







STORIES FROM OUR PARTNERS